Regional Weather Roundup
Issued by NWS

Home | Current Version | Previous Version | Text Only | Print | Product List | Glossary On
Versions: 1 2 3 4 5 6 7 8 9 10 11 12 13 14 15 16 17 18 19 20 21 22 23 24 25 26 27 28 29 30 31 32 33 34 35 36 37 38 39 40 41 42 43 44 45 46 47 48 49 50
000
ASCA42 TJSJ 251510
RWRPR
PUERTO RICO/U.S. VIRGIN ISLANDS HOURLY WEATHER ROUNDUP
NATIONAL WEATHER SERVICE SAN JUAN PR
1100 AM AST SAT APR 25 2015

PRZ001-004-251600-
PUERTO RICO

CITY           SKY/WX    TMP DP  RH WIND       PRES   REMARKS
SAN JUAN LMM   MOSUNNY   88  72  58 N10       29.99F HX  94
AGUADILLA      MOSUNNY   82  72  69 N6        30.01S
CEIBA          MOSUNNY   88  70  55 S9        30.02S HX  92
$$

PRZ006-007-251600-
U.S. VIRGIN ISLANDS

CITY           SKY/WX    TMP DP  RH WIND       PRES   REMARKS
CHARLOTTE AMA  MOSUNNY   84  73  70 SE8       30.00S HX  91
CHRISTIANSTED  MOSUNNY   86  73  66 S9        30.01F HX  93
$$

HOURLY WEATHER ROUNDUP FOR THE NEWS MEDIA

CITY           SKY/WX    TMP DP  RH WIND       PRES   REMARKS
ORLANDO        PTSUNNY   82  69  64 S13       29.95R
NEW YORK       MOSUNNY   50  22  33 W14       29.88S
NEWARK         MOSUNNY   50  23  34 NW13G22   29.88F
CHICAGO        LGT RAIN  43  39  86 E15       29.76F
HARTFORD       SUNNY     48  25  40 W10       29.75F
BOSTON         MOSUNNY   48  25  40 NW12G21   29.74F
DALLAS         SUNNY     73  55  53 W8        29.72F
PHILADELPHIA   CLOUDY    47  22  37 CALM      29.93
LOS ANGELES    PTSUNNY   57  52  82 W9        29.99S
WASHINGTON DC  CLOUDY    48  16  27 SW3       29.95F


USA.gov is the U.S. government's official web portal to all federal, state and local government web resources and services.